DateTimeUTC,F1_A11,F1_S11,BsB_S11,BsG_S11,BsR_S11,BbsB_S11,BbsG_S11,BbsR_S11,BaB_A11,BaG_A11,BaR_A11,Tu_S11,T_S11,Uu_S11,U_S11,P_S11,T1_A11
2021-06-29T15:00:00Z,00000200,20000000,,,,,,,-000.09,-000.17,-000.47,19.5,26.0,09.9,06.7,0659.0,31.2
2021-06-29T15:01:00Z,00000200,20000000,,,,,,,0000.16,-000.06,0000.56,19.5,26.0,09.7,06.5,0659.0,31.2
2021-06-29T15:02:00Z,00000200,20000000,,,,,,,-000.27,-000.11,-000.18,19.5,26.0,09.6,06.5,0659.0,31.2
2021-06-29T15:03:00Z,00000200,60000000,,,,,,,0000.42,0000.33,-000.02,19.5,26.0,09.6,06.5,0659.0,31.2
2021-06-29T15:04:00Z,00000200,40000000,0000.37,0000.37,0000.45,-000.26,0000.25,0000.07,-000.16,-000.34,-000.10,19.6,25.9,09.8,06.7,0659.8,31.2
2021-06-29T15:05:00Z,00000200,00000000,-000.16,0000.19,0000.26,-000.35,0000.00,0000.26,0000.19,0000.28,0000.22,19.7,25.9,09.8,06.7,0659.9,31.2
2021-06-29T15:06:00Z,00000200,00000000,0000.35,0000.17,0000.06,-000.20,-000.13,-000.09,0000.07,-000.15,-000.22,19.7,25.9,09.8,06.7,0659.8,31.2
2021-06-29T15:07:00Z,00000200,00000000,0000.26,0000.25,0000.10,-000.29,0000.01,0000.09,0000.20,-000.15,0000.06,19.7,25.9,09.8,06.8,0659.6,31.2
2021-06-29T15:08:00Z,00000200,00000000,0000.08,0000.21,0000.03,0000.11,0000.21,-000.01,-000.07,0000.55,0000.15,19.7,25.9,09.8,06.7,0659.5,31.2
2021-06-29T15:09:00Z,00000200,00000000,0001.14,0000.49,0000.06,-000.64,-000.23,0000.16,-000.42,0000.13,-000.16,19.7,25.9,09.8,06.8,0659.5,31.3
2021-06-29T15:10:00Z,00000200,00000000,-000.44,0000.16,0000.50,-000.15,0000.07,0000.17,0000.35,-000.30,-000.17,19.7,25.9,09.8,06.8,0659.4,31.3
2021-06-29T15:11:00Z,00000200,00000000,0000.00,0000.16,0000.29,-000.25,0000.14,-000.11,-000.03,0000.18,0000.30,19.7,25.9,09.8,06.8,0659.4,31.2
2021-06-29T15:12:00Z,00000200,00000000,0000.61,-000.13,0000.34,0000.06,0000.30,-000.07,0000.14,0000.05,0000.19,19.7,25.9,09.8,06.7,0659.5,31.2
2021-06-29T15:13:00Z,00000200,00000000,0000.58,0000.25,0000.04,-000.25,-000.05,0000.05,0000.05,-000.01,-000.00,19.7,25.9,09.9,06.8,0659.5,31.2
2021-06-29T15:14:00Z,00000200,00000000,0000.37,-000.11,0000.20,0000.24,0000.01,0000.07,-000.07,0000.15,-000.17,19.7,25.9,09.8,06.7,0659.5,31.2
2021-06-29T15:15:00Z,00000200,00000000,0000.55,0000.25,0000.07,-000.49,-000.10,0000.01,0000.06,-000.01,0000.08,19.7,25.9,09.9,06.8,0659.5,31.2
2021-06-29T15:16:00Z,00000200,00000000,0000.41,0000.22,0000.14,-000.21,0000.07,-000.02,0000.23,-000.03,-000.09,19.7,25.9,09.9,06.8,0659.5,31.2
2021-06-29T15:17:00Z,00000200,00000000,0000.71,0000.31,0000.05,-000.03,-000.11,0000.27,-000.42,0000.10,0000.22,19.7,25.9,09.9,06.8,0659.5,31.2
2021-06-29T15:18:00Z,00000200,00000000,-000.03,0000.16,0000.29,0000.06,0000.01,0000.26,0000.28,-000.03,0000.29,19.7,25.9,09.9,06.8,0659.4,31.2
2021-06-29T15:19:00Z,00000200,00000000,0000.80,0000.40,0000.11,-000.49,0000.12,0000.31,0000.10,-000.01,-000.52,19.7,25.9,09.9,06.9,0659.4,31.2
2021-06-29T15:20:00Z,00000200,00000000,0000.93,0000.17,0000.20,-000.25,0000.02,0000.52,0000.33,0000.19,0000.70,19.7,25.9,09.8,06.8,0659.5,31.2
2021-06-29T15:21:00Z,00000200,00000000,0000.02,0000.13,0000.37,-000.17,0000.19,0000.20,-000.18,0000.16,-000.41,19.7,25.9,10.0,06.9,0659.4,31.3
2021-06-29T15:22:00Z,00000200,00000000,0000.11,0000.17,-000.00,-000.09,0000.18,-000.17,0000.26,-000.03,0000.29,19.8,25.9,10.1,07.0,0659.4,31.2
2021-06-29T15:23:00Z,00000200,00000000,0000.54,-000.02,0000.39,-000.19,0000.22,0000.17,-000.14,0000.06,0000.11,19.8,25.9,09.9,06.8,0659.5,31.3
2021-06-29T15:24:00Z,00000200,00000000,0000.31,-000.17,0000.27,0000.51,0000.06,0000.35,-000.14,-000.19,-000.36,19.8,25.9,10.0,06.9,0659.4,31.2
2021-06-29T15:25:00Z,00000200,00000000,0000.88,0000.14,0000.43,-000.15,0000.06,0000.04,0000.19,0000.09,0000.11,19.8,25.9,09.9,06.8,0659.4,31.2
2021-06-29T15:26:00Z,00000200,00000000,0000.71,0000.35,0000.44,-000.05,0000.35,-000.14,-000.20,0000.14,-000.32,19.8,25.9,09.9,06.8,0659.5,31.3
2021-06-29T15:27:00Z,00000200,00000000,-000.32,0000.22,0000.23,-000.03,0000.25,0000.39,0000.17,-000.25,0000.50,19.8,25.9,09.9,06.8,0659.5,31.3
2021-06-29T15:28:00Z,00000200,00000000,0000.89,0000.26,0000.23,0000.30,0000.16,0000.05,0000.56,0000.37,0000.07,19.8,25.9,09.8,06.8,0659.5,31.2
2021-06-29T15:29:00Z,00000200,00000000,0000.25,0000.23,0000.42,-000.25,0000.32,0000.36,-000.30,-000.08,-000.12,19.8,25.9,09.8,06.8,0659.5,31.2
2021-06-29T15:30:00Z,00000200,00000000,0000.49,0000.35,0000.17,0000.13,0000.15,0000.01,-000.14,0000.03,0000.05,19.8,25.9,10.1,07.0,0659.5,31.3
2021-06-29T15:31:00Z,00000200,00000000,0000.21,-000.04,0000.25,-000.07,0000.15,0000.30,0000.44,0000.30,0000.17,19.8,25.9,10.0,07.0,0659.5,31.2
2021-06-29T15:32:00Z,00000200,00000000,-000.41,0000.58,0000.04,0000.24,0000.07,0000.30,-000.38,-000.45,-000.55,19.8,25.9,10.0,07.0,0659.5,31.2
2021-06-29T15:33:00Z,00000200,00000000,0000.76,0000.47,0000.44,0000.50,0000.26,0000.29,0000.26,0000.57,0000.65,19.8,25.9,09.9,06.9,0659.6,31.2
2021-06-29T15:34:00Z,00000200,00000000,0000.64,0000.14,0000.03,0000.25,-000.21,0000.22,-000.13,-000.49,-000.35,19.8,25.9,09.9,06.9,0659.5,31.3
2021-06-29T15:35:00Z,00000200,00000000,-000.77,0000.21,0000.14,-000.29,0000.11,0000.30,0000.20,0000.28,0000.04,19.8,25.9,09.9,06.9,0659.5,31.2
2021-06-29T15:36:00Z,00000200,00000000,0000.50,-000.02,0000.33,-000.09,0000.06,0000.24,0000.06,-000.00,0000.04,19.8,25.9,10.1,07.0,0659.5,31.2
2021-06-29T15:37:00Z,00000200,00000000,0000.26,0000.32,-000.03,-000.13,0000.15,-000.01,-000.29,-000.11,0000.20,19.8,25.9,10.0,06.9,0659.5,31.3
2021-06-29T15:38:00Z,00000200,00000000,0000.31,0000.27,0000.38,-000.35,0000.18,0000.36,0000.90,0000.51,0000.21,19.8,25.9,10.0,07.0,0659.5,31.2
2021-06-29T15:39:00Z,00000200,00000000,0000.06,0000.08,0000.22,-000.09,0000.01,0000.25,0000.12,-000.09,0000.03,19.8,25.9,10.2,07.1,0659.5,31.2
2021-06-29T15:40:00Z,00000200,00000000,0000.34,0000.29,0000.17,0000.31,-000.05,0000.14,-001.22,-000.72,-000.61,19.8,25.9,10.1,07.0,0659.5,31.3
2021-06-29T15:41:00Z,00000200,00000000,0000.03,0000.39,0000.49,-000.14,-000.07,0000.19,0000.05,0000.19,-000.19,19.8,25.9,09.5,06.6,0659.5,31.2
2021-06-29T15:42:00Z,00000200,00000000,0000.56,0000.15,0000.41,0000.23,0000.10,0000.26,-000.07,-000.23,0000.23,19.9,25.9,09.2,06.4,0659.5,31.2
2021-06-29T15:43:00Z,00000200,00000000,0000.54,0000.51,0000.01,-000.44,0000.09,0000.13,-000.09,0000.20,-000.12,19.9,25.9,09.4,06.5,0659.5,31.2
2021-06-29T15:44:00Z,00000200,00000000,0001.01,0000.17,0000.20,0000.43,0000.24,0000.05,0000.05,-000.32,-000.03,19.9,25.9,09.3,06.5,0659.5,31.3
2021-06-29T15:45:00Z,00000200,00000000,0000.17,0000.01,0000.03,-000.08,0000.22,0000.27,0000.08,0000.04,-000.03,19.9,25.9,09.3,06.5,0659.5,31.2
2021-06-29T15:46:00Z,00000200,00000000,0000.47,0000.26,0000.22,-000.44,0000.29,0000.00,-000.00,0000.33,0000.37,19.9,25.9,09.5,06.5,0659.6,31.2
2021-06-29T15:47:00Z,00000200,00000000,0000.53,0000.16,0000.02,-000.36,0000.03,0000.15,0000.29,0000.24,0000.09,19.9,25.9,09.8,06.7,0659.6,31.3
2021-06-29T15:48:00Z,00000200,00000000,0001.13,0000.24,0000.27,-000.26,-000.36,0000.04,0000.19,0000.24,0000.13,19.9,25.9,09.8,06.8,0659.6,31.2
2021-06-29T15:49:00Z,00000200,00000000,0000.79,0000.27,0000.34,0000.04,0000.12,0000.12,-000.45,-000.47,-000.07,19.9,25.9,09.5,06.6,0659.5,31.3
2021-06-29T15:50:00Z,00000200,00000000,0000.57,0000.05,0000.17,0000.26,0000.00,0000.23,0000.61,0000.43,0000.14,19.9,25.9,09.5,06.6,0659.6,31.2
2021-06-29T15:51:00Z,00000200,00000000,0000.92,0000.29,-000.02,-000.15,0000.11,-000.00,-000.57,-000.54,-000.24,19.9,25.9,09.6,06.7,0659.5,31.3
2021-06-29T15:52:00Z,00000200,00000000,0000.30,0000.20,0000.10,-000.09,0000.26,0000.27,0000.33,0000.43,-000.04,19.9,25.9,09.4,06.5,0659.6,31.3
2021-06-29T15:53:00Z,00000200,00000000,0000.46,0000.03,0000.13,-000.22,0000.19,0000.26,-000.14,-000.21,0000.03,19.9,26.0,09.6,06.7,0659.6,31.2
2021-06-29T15:54:00Z,00000200,00000000,0000.38,0000.05,0000.20,0000.48,0000.07,0000.45,0000.02,-000.00,-000.26,19.9,26.0,09.5,06.6,0659.5,31.2
2021-06-29T15:55:00Z,00000200,00000000,0000.03,0000.09,0000.25,-000.07,0000.11,0000.11,0000.16,0000.14,0000.47,19.9,26.0,09.5,06.6,0659.6,31.2
2021-06-29T15:56:00Z,00000200,00000000,0000.02,-000.03,-000.05,0000.52,0000.15,-000.20,0000.00,0000.25,0000.21,19.9,26.0,09.5,06.6,0659.6,31.3
2021-06-29T15:57:00Z,00000200,40000000,,,,,,,0000.10,0000.12,0000.20,20.0,26.0,09.3,06.5,0659.7,31.3
2021-06-29T15:58:00Z,00000200,60000000,,,,,,,-000.05,-000.51,-000.37,19.8,26.1,09.5,06.5,0658.6,31.3
2021-06-29T15:59:00Z,00000200,20000000,,,,,,,0000.12,0000.26,0000.03,19.8,26.2,09.6,06.5,0658.6,31.3
